Flag for French Polynesia Weather past 2 weeks in Papeete, Tahiti, French Polynesia

82 °F

Scattered clouds.

Feels Like: 86 °F
Forecast: 75 / 84 °F
Wind: 7 mph from Northeast

Location: Tahiti-Faaa

Current Time: Oct 9, 2015 at 5:39:55 PM

Latest Report: Oct 9, 2015 at 5:00 PM

Visibility: N/A

Pressure: 29.92 "Hg

Humidity: 66%

Dew point: 70 °F

Location of PapeeteLocation

Historic Weather in Papeete — Graph


Papeete temperature yesterday

Maximum temperature yesterday: 86 °F (at 1:30 PM)
Minimum temperature yesterday: 72 °F (at 4:30 AM)
Average temperature yesterday: 79 °F

Past Weeks' High & Low Weather Summary

High86 °F (Oct 8, 1:30 PM)94% (Oct 4, 1:30 AM)30.01 "Hg (Oct 4, 1:30 AM)
Low70 °F (Sep 26, 4:00 AM)50% (Sep 25, 9:00 PM)29.74 "Hg (Sep 24, 4:00 PM)
Average77 °F71%29.91 "Hg
* Reported Sep 24 4:00 PM — Oct 9 4:30 PM, Papeete, Weather by CustomWeather, © 2015

Note: Actual official high and low records may vary slightly from our data, if they occured in-between our weather recording intervals... More about our weather records


Papeete weather history for previous 24 hours

Time TempWeatherWind HumidityBarometerVisibility
4:30 PM
Fri, Oct 9
81 °FScattered clouds.15 mph74%29.92 "HgN/A
4:00 PM82 °FScattered clouds.16 mph70%29.92 "HgN/A
3:30 PM84 °FScattered clouds.17 mph66%29.92 "HgN/A
3:00 PM84 °FScattered clouds.13 mph62%29.89 "HgN/A
2:30 PM82 °FScattered clouds.20 mph70%29.89 "HgN/A
2:00 PM84 °FScattered clouds.22 mph70%29.89 "HgN/A
1:30 PM84 °FScattered clouds.24 mph70%29.92 "HgN/A
1:00 PM84 °FScattered clouds.22 mph70%29.92 "HgN/A
12:30 PM84 °FScattered clouds.24 mph70%29.92 "HgN/A
12:00 PM84 °FPassing clouds.24 mph70%29.95 "HgN/A
11:00 AM84 °FPassing clouds.22 mph70%29.98 "HgN/A
10:30 AM84 °FPassing clouds.21 mph70%29.98 "HgN/A
10:00 AM84 °FPassing clouds.21 mph70%29.98 "HgN/A
9:30 AM84 °FPassing clouds.20 mph66%29.98 "HgN/A
9:00 AM82 °FPassing clouds.22 mph74%29.98 "HgN/A
8:30 AM82 °FScattered clouds.16 mph70%29.98 "HgN/A
8:00 AM82 °FScattered clouds.14 mph66%29.98 "HgN/A
7:30 AM81 °FPartly sunny.16 mph70%29.98 "HgN/A
7:00 AM81 °FPartly sunny.16 mph74%29.98 "HgN/A
6:30 AM79 °FPartly sunny.15 mph79%29.98 "HgN/A
6:00 AM79 °FPartly sunny.18 mph84%29.95 "HgN/A
5:30 AM79 °FWarm.18 mph79%29.95 "HgN/A
4:30 AM79 °FWarm.13 mph79%29.92 "HgN/A
4:00 AM79 °FWarm.10 mph74%29.92 "HgN/A
3:30 AM79 °FWarm.15 mph79%29.89 "HgN/A
3:00 AM79 °FPartly cloudy.15 mph79%29.89 "HgN/A
2:30 AM79 °FPartly cloudy.13 mph74%29.89 "HgN/A
2:00 AM79 °FPartly cloudy.12 mph79%29.89 "HgN/A
1:30 AM79 °FPartly cloudy.6 mph74%29.92 "HgN/A
1:00 AM79 °FPartly cloudy.10 mph74%29.92 "HgN/A
12:30 AM79 °FPartly cloudy.5 mph79%29.92 "HgN/A
12:00 AM79 °FPartly cloudy.9 mph74%29.95 "HgN/A
11:30 PM
Thu, Oct 8
79 °FPartly cloudy.9 mph74%29.95 "HgN/A
9:30 PM81 °FPartly cloudy.7 mph74%29.98 "HgN/A
9:00 PM81 °FPartly cloudy.12 mph74%29.95 "HgN/A
8:30 PM81 °FScattered showers. Partly cloudy.10 mph74%29.95 "HgN/A
8:00 PM81 °FScattered showers. Partly cloudy.3 mph74%29.95 "HgN/A
7:30 PM81 °FScattered showers. Partly cloudy.5 mph74%29.95 "HgN/A
7:00 PM81 °FScattered showers. Partly cloudy.No wind74%29.95 "HgN/A
6:30 PM81 °FScattered showers. Passing clouds.2 mph74%29.92 "HgN/A
6:00 PM81 °FPassing clouds.2 mph74%29.92 "HgN/A
5:30 PM82 °FScattered clouds.7 mph70%29.89 "HgN/A
5:00 PM82 °FScattered clouds.6 mph74%29.89 "HgN/A
Weather by CustomWeather, © 2015

See weather overviewHow to use our weather pages